QPF
0.08 0.10 0.23 0.42 0.35 0.32 0.29 0.18 0.08 0.05 0.05 0.05 0.02 0.00 0.02 0.12 0.17 0.13 0.20 0.25 0.20 0.16 0.09 0.09 0.09 0.06 0.03 0.02 0.01 0.02 0.01 0.01 0.01 0.01 0.01 0.01 0.01 0.01 0.01 0.00 0.00 0.00 0.00 0.00 0.00 0.00 0.00 0.00 0.00
0.06 0.17 0.37 0.52 0.34 0.24 0.22 0.17 0.08 0.05 0.04 0.04 0.03 0.02 0.03 0.05 0.08 0.11 0.24 0.32 0.20 0.16 0.09 0.06 0.06 0.05 0.04 0.02 0.01 0.01 0.01 0.01 0.01 0.01 0.01 0.01 0.01 0.00 0.00 0.00 0.00 0.00 0.00 0.00 0.00 0.00 0.00 0.00 0.00
0.10 0.28 0.50 0.52 0.28 0.18 0.21 0.18 0.09 0.04 0.02 0.01 0.02 0.01 0.03 0.06 0.12 0.15 0.32 0.32 0.20 0.15 0.09 0.06 0.06 0.05 0.05 0.03 0.02 0.01 0.01 0.01 0.01 0.01 0.01 0.01 0.01 0.01 0.01 0.01 0.01 0.00 0.00 0.00 0.00 0.00 0.00 0.00 0.00
0.20 0.38 0.49 0.38 0.28 0.23 0.20 0.13 0.06 0.04 0.02 0.01 0.01 0.01 0.02 0.08 0.13 0.18 0.27 0.24 0.18 0.13 0.08 0.06 0.07 0.05 0.05 0.04 0.03 0.02 0.01 0.01 0.01 0.01 0.01 0.01 0.02 0.02 0.02 0.01 0.01 0.01 0.01 0.01 0.01 0.00 0.00 0.00 0.00
0.27 0.41 0.31 0.21 0.26 0.20 0.12 0.06 0.04 0.03 0.02 0.01 0.01 0.02 0.03 0.07 0.10 0.11 0.14 0.16 0.13 0.11 0.07 0.04 0.05 0.05 0.05 0.04 0.04 0.03 0.01 0.01 0.01 0.01 0.02 0.02 0.03 0.03 0.02 0.01 0.01 0.01 0.01 0.01 0.01 0.01 0.00 0.00 0.00
0.30 0.30 0.21 0.13 0.17 0.18 0.13 0.08 0.04 0.02 0.03 0.02 0.01 0.02 0.03 0.07 0.08 0.09 0.10 0.10 0.09 0.07 0.05 0.03 0.05 0.05 0.05 0.04 0.02 0.02 0.02 0.01 0.02 0.02 0.03 0.03 0.03 0.03 0.03 0.02 0.02 0.01 0.01 0.01 0.02 0.02 0.01 0.00 0.01
0.26 0.24 0.17 0.10 0.11 0.19 0.11 0.05 0.04 0.02 0.03 0.02 0.01 0.02 0.02 0.04 0.05 0.04 0.03 0.04 0.04 0.03 0.03 0.03 0.03 0.03 0.05 0.06 0.05 0.04 0.03 0.03 0.03 0.04 0.05 0.05 0.05 0.04 0.03 0.04 0.03 0.02 0.02 0.02 0.02 0.02 0.01 0.01 0.01
0.21 0.21 0.13 0.10 0.10 0.16 0.07 0.02 0.02 0.01 0.01 0.01 0.01 0.02 0.02 0.01 0.01 0.01 0.01 0.01 0.02 0.01 0.01 0.01 0.00 0.01 0.01 0.02 0.04 0.05 0.06 0.06 0.05 0.05 0.05 0.06 0.06 0.06 0.05 0.05 0.04 0.04 0.04 0.05 0.05 0.03 0.02 0.02 0.01
0.21 0.17 0.11 0.11 0.08 0.10 0.04 0.02 0.01 0.01 0.00 0.01 0.01 0.01 0.01 0.00 0.00 0.00 0.01 0.01 0.01 0.01 0.00 0.00 0.00 0.00 0.00 0.01 0.01 0.02 0.04 0.05 0.06 0.05 0.06 0.06 0.04 0.03 0.04 0.05 0.06 0.08 0.10 0.09 0.06 0.05 0.03 0.02 0.01
0.21 0.18 0.15 0.08 0.06 0.04 0.03 0.02 0.01 0.01 0.01 0.01 0.01 0.01 0.00 0.01 0.01 0.00 0.01 0.01 0.00 0.00 0.00 0.00 0.00 0.00 0.00 0.00 0.00 0.01 0.01 0.02 0.03 0.03 0.04 0.04 0.04 0.04 0.04 0.05 0.08 0.12 0.13 0.12 0.10 0.09 0.06 0.04 0.02
0.26 0.22 0.16 0.11 0.05 0.03 0.02 0.02 0.01 0.01 0.02 0.01 0.01 0.01 0.01 0.01 0.01 0.00 0.00 0.00 0.00 0.00 0.00 0.00 0.00 0.00 0.00 0.00 0.00 0.00 0.01 0.01 0.01 0.02 0.03 0.04 0.05 0.06 0.06 0.05 0.05 0.07 0.09 0.07 0.07 0.09 0.06 0.03 0.02
0.25 0.13 0.10 0.10 0.06 0.03 0.03 0.03 0.03 0.02 0.01 0.01 0.00 0.00 0.00 0.00 0.00 0.00 0.00 0.00 0.00 0.00 0.00 0.00 0.00 0.00 0.00 0.00 0.00 0.00 0.00 0.00 0.00 0.01 0.03 0.03 0.04 0.05 0.07 0.06 0.05 0.05 0.06 0.07 0.07 0.08 0.08 0.07 0.07
0.26 0.19 0.13 0.11 0.06 0.04 0.04 0.04 0.03 0.02 0.01 0.00 0.00 0.00 0.00 0.00 0.00 0.00 0.00 0.00 0.00 0.00 0.00 0.00 0.00 0.00 0.00 0.00 0.00 0.00 0.00 0.00 0.00 0.01 0.02 0.02 0.03 0.03 0.04 0.06 0.07 0.08 0.10 0.08 0.08 0.08 0.09 0.10 0.10
0.15 0.15 0.17 0.12 0.06 0.05 0.05 0.05 0.03 0.02 0.01 0.00 0.00 0.00 0.00 0.00 0.00 0.00 0.00 0.00 0.00 0.00 0.00 0.00 0.00 0.00 0.00 0.00 0.00 0.00 0.00 0.00 0.00 0.01 0.01 0.02 0.02 0.03 0.04 0.05 0.07 0.08 0.09 0.10 0.11 0.10 0.10 0.09 0.10
0.12 0.12 0.11 0.10 0.08 0.06 0.04 0.04 0.03 0.03 0.02 0.01 0.00 0.00 0.00 0.00 0.00 0.00 0.00 0.00 0.00 0.00 0.00 0.00 0.00 0.00 0.00 0.00 0.00 0.00 0.00 0.00 0.01 0.01 0.01 0.02 0.02 0.03 0.06 0.07 0.07 0.07 0.09 0.09 0.10 0.13 0.18 0.15 0.14
0.13 0.11 0.12 0.14 0.15 0.10 0.05 0.03 0.03 0.03 0.02 0.01 0.00 0.00 0.00 0.00 0.00 0.00 0.00 0.00 0.00 0.00 0.00 0.00 0.00 0.00 0.00 0.00 0.00 0.00 0.00 0.00 0.01 0.01 0.01 0.02 0.02 0.02 0.03 0.05 0.07 0.07 0.09 0.11 0.11 0.13 0.15 0.17 0.17
0.15 0.14 0.12 0.12 0.10 0.08 0.04 0.02 0.02 0.03 0.02 0.01 0.00 0.00 0.00 0.00 0.00 0.00 0.00 0.00 0.00 0.00 0.00 0.00 0.00 0.00 0.00 0.00 0.00 0.00 0.00 0.00 0.00 0.01 0.01 0.01 0.01 0.02 0.02 0.02 0.04 0.06 0.08 0.11 0.13 0.13 0.13 0.14 0.14
0.11 0.07 0.05 0.05 0.07 0.07 0.03 0.01 0.02 0.02 0.01 0.01 0.00 0.00 0.00 0.00 0.00 0.00 0.00 0.00 0.00 0.00 0.00 0.00 0.00 0.00 0.00 0.00 0.00 0.00 0.00 0.00 0.00 0.01 0.02 0.01 0.01 0.02 0.02 0.02 0.02 0.03 0.04 0.07 0.09 0.09 0.11 0.11 0.11
0.09 0.05 0.04 0.04 0.03 0.03 0.03 0.01 0.01 0.02 0.01 0.01 0.00 0.00 0.00 0.00 0.00 0.00 0.00 0.00 0.00 0.00 0.00 0.00 0.00 0.00 0.00 0.00 0.00 0.00 0.00 0.00 0.01 0.01 0.01 0.01 0.01 0.01 0.01 0.01 0.01 0.02 0.03 0.05 0.07 0.08 0.09 0.10 0.12
0.08 0.05 0.03 0.01 0.00 0.01 0.00 0.00 0.00 0.01 0.01 0.00 0.00 0.00 0.00 0.00 0.00 0.00 0.00 0.00 0.00 0.00 0.00 0.00 0.00 0.00 0.00 0.00 0.00 0.00 0.00 0.00 0.00 0.01 0.00 0.01 0.02 0.02 0.01 0.01 0.01 0.01 0.02 0.04 0.06 0.08 0.08 0.10 0.14
0.04 0.03 0.03 0.01 0.00 0.00 0.00 0.00 0.00 0.00 0.00 0.00 0.00 0.00 0.00 0.00 0.00 0.00 0.00 0.00 0.00 0.00 0.00 0.00 0.00 0.00 0.00 0.00 0.00 0.00 0.00 0.00 0.01 0.01 0.01 0.01 0.02 0.02 0.01 0.01 0.02 0.02 0.02 0.03 0.04 0.07 0.09 0.10 0.13
0.02 0.01 0.01 0.01 0.00 0.00 0.00 0.00 0.00 0.00 0.00 0.00 0.00 0.00 0.00 0.00 0.00 0.00 0.00 0.00 0.00 0.00 0.00 0.00 0.00 0.00 0.00 0.00 0.00 0.00 0.00 0.00 0.01 0.01 0.01 0.01 0.01 0.01 0.02 0.02 0.02 0.02 0.02 0.02 0.03 0.05 0.07 0.08 0.10
0.01 0.00 0.00 0.00 0.00 0.00 0.00 0.00 0.00 0.00 0.00 0.00 0.00 0.00 0.00 0.00 0.00 0.00 0.00 0.00 0.00 0.00 0.00 0.00 0.00 0.00 0.00 0.00 0.00 0.00 0.00 0.01 0.01 0.02 0.02 0.01 0.01 0.01 0.02 0.02 0.02 0.02 0.03 0.03 0.03 0.03 0.04 0.06 0.07
0.00 0.00 0.00 0.00 0.00 0.00 0.00 0.00 0.00 0.00 0.00 0.00 0.00 0.00 0.00 0.00 0.00 0.00 0.00 0.00 0.00 0.00 0.00 0.00 0.00 0.00 0.00 0.00 0.00 0.01 0.01 0.02 0.02 0.02 0.01 0.01 0.01 0.02 0.02 0.02 0.01 0.01 0.02 0.02 0.02 0.01 0.02 0.04 0.06
0.00 0.00 0.00 0.00 0.00 0.00 0.00 0.00 0.00 0.00 0.00 0.00 0.00 0.00 0.00 0.00 0.00 0.00 0.00 0.00 0.00 0.00 0.00 0.00 0.00 0.00 0.00 0.00 0.00 0.00 0.01 0.02 0.02 0.02 0.02 0.02 0.02 0.02 0.02 0.01 0.01 0.01 0.01 0.01 0.02 0.02 0.02 0.04 0.05
0.00 0.00 0.00 0.00 0.00 0.00 0.00 0.00 0.00 0.00 0.00 0.00 0.00 0.00 0.00 0.00 0.00 0.00 0.00 0.00 0.00 0.00 0.00 0.00 0.00 0.00 0.00 0.00 0.00 0.00 0.00 0.01 0.02 0.03 0.03 0.04 0.04 0.04 0.03 0.03 0.02 0.01 0.02 0.01 0.02 0.02 0.02 0.03 0.05
0.00 0.00 0.00 0.00 0.00 0.00 0.00 0.00 0.00 0.00 0.00 0.00 0.00 0.00 0.00 0.00 0.00 0.00 0.00 0.00 0.00 0.00 0.00 0.00 0.00 0.00 0.00 0.00 0.00 0.00 0.00 0.01 0.02 0.02 0.03 0.03 0.04 0.05 0.05 0.05 0.03 0.02 0.02 0.02 0.02 0.02 0.03 0.03 0.04
0.00 0.00 0.00 0.00 0.00 0.00 0.00 0.00 0.00 0.00 0.00 0.00 0.00 0.00 0.00 0.00 0.00 0.00 0.00 0.00 0.00 0.00 0.00 0.00 0.00 0.00 0.00 0.00 0.00 0.00 0.00 0.00 0.01 0.02 0.02 0.03 0.04 0.04 0.04 0.03 0.02 0.02 0.02 0.02 0.02 0.02 0.03 0.04 0.04
0.00 0.00 0.00 0.00 0.00 0.00 0.00 0.00 0.00 0.00 0.00 0.00 0.00 0.00 0.00 0.00 0.00 0.00 0.00 0.00 0.00 0.00 0.00 0.00 0.00 0.00 0.00 0.00 0.00 0.00 0.00 0.01 0.01 0.01 0.01 0.01 0.01 0.02 0.02 0.02 0.02 0.02 0.02 0.02 0.02 0.03 0.04 0.04 0.04
0.00 0.00 0.00 0.00 0.00 0.00 0.00 0.00 0.00 0.00 0.00 0.00 0.00 0.00 0.00 0.00 0.00 0.00 0.00 0.00 0.00 0.00 0.00 0.00 0.00 0.00 0.00 0.00 0.00 0.00 0.00 0.00 0.01 0.00 0.00 0.00 0.00 0.00 0.01 0.02 0.02 0.03 0.03 0.02 0.03 0.04 0.04 0.04 0.04
MSLP
1012.56 1013.62 1014.79 1015.90 1016.80 1017.35 1017.50 1017.28 1016.78 1016.16 1015.60 1015.22 1015.11 1015.26 1015.59 1016.00 1016.32 1016.46 1016.34 1015.96 1015.40 1014.74 1014.11 1013.60 1013.28 1013.16 1013.20 1013.34 1013.50 1013.63 1013.70 1013.71 1013.69 1013.67 1013.69 1013.78 1013.93 1014.11 1014.29 1014.43 1014.51 1014.52 1014.47 1014.40 1014.32 1014.26 1014.24 1014.24 1014.26
1012.83 1014.02 1015.27 1016.41 1017.26 1017.72 1017.75 1017.40 1016.79 1016.08 1015.44 1015.01 1014.86 1014.98 1015.29 1015.68 1015.99 1016.12 1016.01 1015.66 1015.14 1014.54 1013.97 1013.52 1013.25 1013.16 1013.22 1013.36 1013.52 1013.65 1013.71 1013.72 1013.69 1013.66 1013.67 1013.73 1013.84 1013.97 1014.11 1014.20 1014.25 1014.25 1014.21 1014.15 1014.11 1014.09 1014.11 1014.14 1014.18
1013.21 1014.50 1015.79 1016.90 1017.67 1018.03 1017.94 1017.49 1016.80 1016.03 1015.36 1014.91 1014.73 1014.82 1015.09 1015.42 1015.69 1015.79 1015.67 1015.35 1014.87 1014.34 1013.85 1013.47 1013.26 1013.22 1013.29 1013.43 1013.58 1013.68 1013.73 1013.72 1013.67 1013.62 1013.60 1013.62 1013.68 1013.76 1013.83 1013.88 1013.90 1013.89 1013.86 1013.84 1013.84 1013.88 1013.94 1014.03 1014.10
1013.67 1015.01 1016.28 1017.31 1017.97 1018.20 1018.02 1017.50 1016.77 1016.00 1015.35 1014.92 1014.74 1014.80 1015.03 1015.29 1015.49 1015.54 1015.40 1015.09 1014.67 1014.21 1013.80 1013.50 1013.35 1013.33 1013.41 1013.54 1013.65 1013.72 1013.72 1013.68 1013.60 1013.53 1013.47 1013.45 1013.46 1013.49 1013.51 1013.52 1013.52 1013.50 1013.50 1013.51 1013.57 1013.66 1013.79 1013.92 1014.03
1014.19 1015.51 1016.68 1017.57 1018.09 1018.20 1017.92 1017.37 1016.67 1015.97 1015.39 1015.03 1014.89 1014.96 1015.13 1015.33 1015.46 1015.44 1015.27 1014.97 1014.58 1014.19 1013.86 1013.63 1013.52 1013.52 1013.58 1013.66 1013.71 1013.72 1013.67 1013.58 1013.47 1013.37 1013.29 1013.24 1013.22 1013.21 1013.20 1013.18 1013.16 1013.15 1013.17 1013.23 1013.34 1013.48 1013.66 1013.83 1013.97
1014.71 1015.93 1016.95 1017.65 1017.98 1017.95 1017.61 1017.07 1016.44 1015.87 1015.44 1015.20 1015.14 1015.24 1015.39 1015.53 1015.58 1015.50 1015.30 1014.99 1014.64 1014.31 1014.04 1013.86 1013.78 1013.76 1013.78 1013.79 1013.76 1013.69 1013.57 1013.43 1013.28 1013.16 1013.08 1013.02 1012.98 1012.95 1012.92 1012.88 1012.86 1012.86 1012.90 1013.00 1013.15 1013.34 1013.55 1013.76 1013.92
1015.21 1016.26 1017.05 1017.51 1017.64 1017.47 1017.08 1016.58 1016.08 1015.68 1015.44 1015.36 1015.43 1015.58 1015.73 1015.83 1015.82 1015.68 1015.44 1015.13 1014.81 1014.52 1014.30 1014.16 1014.08 1014.04 1013.99 1013.91 1013.79 1013.62 1013.43 1013.24 1013.07 1012.94 1012.85 1012.80 1012.76 1012.73 1012.69 1012.66 1012.63 1012.64 1012.69 1012.81 1012.99 1013.21 1013.44 1013.66 1013.84
1015.66 1016.50 1017.03 1017.22 1017.13 1016.82 1016.39 1015.96 1015.60 1015.41 1015.37 1015.48 1015.68 1015.90 1016.07 1016.13 1016.07 1015.89 1015.62 1015.31 1015.02 1014.77 1014.60 1014.48 1014.39 1014.30 1014.19 1014.02 1013.80 1013.55 1013.29 1013.06 1012.87 1012.74 1012.67 1012.62 1012.60 1012.57 1012.53 1012.48 1012.45 1012.45 1012.50 1012.63 1012.81 1013.04 1013.29 1013.52 1013.71
1016.07 1016.68 1016.92 1016.86 1016.55 1016.11 1015.66 1015.29 1015.09 1015.08 1015.25 1015.53 1015.85 1016.14 1016.32 1016.36 1016.26 1016.04 1015.76 1015.46 1015.20 1015.00 1014.86 1014.76 1014.66 1014.53 1014.35 1014.10 1013.81 1013.48 1013.17 1012.91 1012.71 1012.59 1012.53 1012.50 1012.48 1012.45 1012.40 1012.34 1012.29 1012.27 1012.31 1012.42 1012.60 1012.83 1013.08 1013.32 1013.51
1016.44 1016.83 1016.83 1016.52 1016.03 1015.48 1015.01 1014.71 1014.64 1014.79 1015.11 1015.52 1015.92 1016.25 1016.43 1016.45 1016.31 1016.07 1015.79 1015.52 1015.29 1015.14 1015.04 1014.96 1014.86 1014.71 1014.48 1014.18 1013.82 1013.45 1013.11 1012.83 1012.63 1012.51 1012.46 1012.44 1012.41 1012.37 1012.30 1012.21 1012.12 1012.07 1012.08 1012.17 1012.34 1012.56 1012.82 1013.06 1013.27
1016.80 1017.00 1016.80 1016.31 1015.67 1015.05 1014.57 1014.31 1014.32 1014.57 1014.98 1015.46 1015.90 1016.22 1016.38 1016.37 1016.21 1015.96 1015.69 1015.44 1015.27 1015.16 1015.11 1015.06 1014.97 1014.82 1014.57 1014.24 1013.86 1013.47 1013.11 1012.82 1012.63 1012.51 1012.45 1012.42 1012.38 1012.31 1012.20 1012.07 1011.95 1011.86 1011.84 1011.90 1012.05 1012.26 1012.52 1012.78 1013.00
1017.15 1017.22 1016.88 1016.27 1015.55 1014.88 1014.40 1014.17 1014.21 1014.50 1014.93 1015.40 1015.81 1016.09 1016.20 1016.15 1015.96 1015.71 1015.46 1015.27 1015.14 1015.09 1015.08 1015.08 1015.01 1014.87 1014.63 1014.30 1013.92 1013.53 1013.18 1012.90 1012.70 1012.57 1012.50 1012.44 1012.36 1012.26 1012.11 1011.94 1011.78 1011.65 1011.60 1011.64 1011.76 1011.97 1012.23 1012.50 1012.74
1017.47 1017.47 1017.06 1016.40 1015.66 1014.98 1014.50 1014.28 1014.31 1014.57 1014.95 1015.35 1015.69 1015.89 1015.94 1015.84 1015.64 1015.40 1015.18 1015.03 1014.96 1014.97 1015.00 1015.03 1015.00 1014.89 1014.67 1014.37 1014.01 1013.65 1013.31 1013.03 1012.83 1012.68 1012.58 1012.48 1012.37 1012.22 1012.03 1011.83 1011.63 1011.48 1011.41 1011.42 1011.54 1011.73 1011.99 1012.26 1012.52
1017.73 1017.71 1017.30 1016.65 1015.93 1015.28 1014.81 1014.58 1014.58 1014.76 1015.04 1015.34 1015.56 1015.67 1015.65 1015.52 1015.31 1015.10 1014.93 1014.83 1014.80 1014.85 1014.92 1014.98 1014.98 1014.89 1014.71 1014.45 1014.13 1013.80 1013.48 1013.21 1012.99 1012.82 1012.68 1012.54 1012.38 1012.19 1011.98 1011.75 1011.55 1011.39 1011.30 1011.30 1011.40 1011.59 1011.83 1012.10 1012.36
1017.89 1017.87 1017.50 1016.91 1016.26 1015.66 1015.22 1014.97 1014.92 1015.00 1015.17 1015.33 1015.45 1015.47 1015.40 1015.25 1015.07 1014.90 1014.77 1014.72 1014.73 1014.80 1014.89 1014.96 1014.97 1014.91 1014.76 1014.54 1014.27 1013.98 1013.69 1013.42 1013.18 1012.98 1012.79 1012.60 1012.41 1012.19 1011.96 1011.73 1011.53 1011.38 1011.29 1011.29 1011.37 1011.53 1011.75 1012.00 1012.24
1017.90 1017.90 1017.59 1017.09 1016.53 1016.01 1015.61 1015.35 1015.23 1015.23 1015.27 1015.33 1015.35 1015.31 1015.22 1015.09 1014.95 1014.84 1014.76 1014.75 1014.78 1014.85 1014.93 1014.99 1015.00 1014.95 1014.83 1014.65 1014.43 1014.17 1013.90 1013.64 1013.39 1013.15 1012.92 1012.68 1012.45 1012.22 1011.99 1011.78 1011.59 1011.46 1011.38 1011.37 1011.44 1011.56 1011.74 1011.94 1012.15
1017.72 1017.74 1017.51 1017.12 1016.67 1016.24 1015.89 1015.63 1015.47 1015.38 1015.33 1015.29 1015.25 1015.20 1015.12 1015.04 1014.97 1014.92 1014.91 1014.92 1014.95 1015.00 1015.04 1015.06 1015.05 1015.00 1014.91 1014.76 1014.59 1014.37 1014.13 1013.87 1013.60 1013.33 1013.05 1012.78 1012.52 1012.28 1012.06 1011.87 1011.71 1011.60 1011.53 1011.52 1011.55 1011.64 1011.76 1011.90 1012.05
1017.37 1017.41 1017.26 1016.99 1016.67 1016.35 1016.05 1015.81 1015.61 1015.45 1015.33 1015.24 1015.17 1015.12 1015.09 1015.09 1015.10 1015.13 1015.16 1015.18 1015.20 1015.20 1015.19 1015.16 1015.11 1015.05 1014.97 1014.87 1014.74 1014.57 1014.36 1014.11 1013.83 1013.53 1013.22 1012.91 1012.63 1012.38 1012.17 1012.00 1011.87 1011.78 1011.72 1011.69 1011.69 1011.72 1011.78 1011.86 1011.95
1016.88 1016.96 1016.90 1016.76 1016.58 1016.37 1016.15 1015.92 1015.69 1015.48 1015.30 1015.16 1015.08 1015.06 1015.10 1015.18 1015.28 1015.38 1015.45 1015.48 1015.46 1015.40 1015.32 1015.23 1015.14 1015.07 1015.01 1014.95 1014.87 1014.75 1014.58 1014.36 1014.07 1013.75 1013.41 1013.08 1012.77 1012.52 1012.31 1012.16 1012.05 1011.97 1011.91 1011.86 1011.82 1011.79 1011.78 1011.79 1011.83
1016.32 1016.46 1016.53 1016.55 1016.51 1016.41 1016.26 1016.04 1015.79 1015.52 1015.28 1015.10 1015.01 1015.01 1015.10 1015.26 1015.44 1015.59 1015.69 1015.72 1015.66 1015.55 1015.40 1015.24 1015.12 1015.04 1015.00 1014.98 1014.97 1014.91 1014.79 1014.60 1014.32 1013.99 1013.63 1013.27 1012.95 1012.68 1012.47 1012.32 1012.22 1012.14 1012.07 1011.99 1011.91 1011.82 1011.75 1011.70 1011.69
1015.79 1016.04 1016.27 1016.46 1016.57 1016.60 1016.50 1016.29 1015.99 1015.64 1015.32 1015.08 1014.95 1014.95 1015.07 1015.28 1015.51 1015.71 1015.83 1015.84 1015.75 1015.58 1015.38 1015.18 1015.03 1014.95 1014.94 1014.98 1015.02 1015.04 1014.98 1014.83 1014.57 1014.24 1013.87 1013.49 1013.15 1012.86 1012.64 1012.49 1012.38 1012.29 1012.20 1012.09 1011.96 1011.83 1011.70 1011.60 1011.54
1015.39 1015.79 1016.21 1016.58 1016.86 1016.99 1016.94 1016.70 1016.33 1015.88 1015.44 1015.09 1014.89 1014.85 1014.97 1015.19 1015.45 1015.68 1015.81 1015.82 1015.70 1015.50 1015.25 1015.03 1014.87 1014.80 1014.83 1014.92 1015.04 1015.12 1015.12 1015.02 1014.79 1014.48 1014.10 1013.71 1013.35 1013.05 1012.82 1012.65 1012.52 1012.42 1012.30 1012.16 1011.99 1011.81 1011.64 1011.50 1011.40
1015.18 1015.77 1016.39 1016.96 1017.39 1017.60 1017.57 1017.28 1016.80 1016.22 1015.63 1015.14 1014.83 1014.71 1014.78 1014.99 1015.26 1015.49 1015.64 1015.65 1015.53 1015.32 1015.06 1014.82 1014.67 1014.63 1014.69 1014.84 1015.01 1015.15 1015.21 1015.15 1014.96 1014.67 1014.30 1013.91 1013.54 1013.23 1012.98 1012.79 1012.65 1012.52 1012.38 1012.21 1012.00 1011.79 1011.58 1011.40 1011.27
1015.19 1015.98 1016.80 1017.54 1018.10 1018.37 1018.32 1017.95 1017.34 1016.59 1015.83 1015.18 1014.73 1014.51 1014.52 1014.69 1014.95 1015.19 1015.35 1015.38 1015.28 1015.08 1014.83 1014.61 1014.47 1014.45 1014.55 1014.73 1014.95 1015.13 1015.24 1015.21 1015.06 1014.79 1014.44 1014.06 1013.69 1013.37 1013.12 1012.92 1012.76 1012.61 1012.44 1012.24 1012.01 1011.76 1011.52 1011.31 1011.14
1015.39 1016.36 1017.35 1018.22 1018.86 1019.15 1019.05 1018.58 1017.82 1016.90 1015.97 1015.16 1014.56 1014.24 1014.17 1014.31 1014.55 1014.81 1015.00 1015.07 1015.00 1014.83 1014.62 1014.42 1014.31 1014.31 1014.42 1014.62 1014.85 1015.06 1015.18 1015.19 1015.06 1014.82 1014.49 1014.13 1013.78 1013.47 1013.21 1013.01 1012.84 1012.67 1012.49 1012.27 1012.01 1011.74 1011.46 1011.21 1011.01
1015.71 1016.81 1017.91 1018.86 1019.52 1019.78 1019.61 1019.03 1018.13 1017.06 1015.97 1015.02 1014.31 1013.90 1013.78 1013.88 1014.13 1014.41 1014.64 1014.75 1014.74 1014.62 1014.45 1014.29 1014.19 1014.20 1014.31 1014.50 1014.73 1014.93 1015.06 1015.07 1014.96 1014.75 1014.45 1014.12 1013.80 1013.50 1013.26 1013.06 1012.88 1012.71 1012.51 1012.27 1012.00 1011.70 1011.39 1011.10 1010.85
1016.07 1017.22 1018.36 1019.31 1019.93 1020.13 1019.86 1019.17 1018.16 1016.98 1015.79 1014.75 1013.98 1013.52 1013.36 1013.46 1013.72 1014.03 1014.29 1014.46 1014.51 1014.45 1014.32 1014.20 1014.12 1014.12 1014.22 1014.38 1014.58 1014.76 1014.87 1014.88 1014.79 1014.59 1014.33 1014.04 1013.74 1013.48 1013.25 1013.06 1012.89 1012.70 1012.49 1012.24 1011.95 1011.63 1011.30 1010.97 1010.68
1016.36 1017.50 1018.58 1019.46 1019.99 1020.09 1019.73 1018.95 1017.87 1016.64 1015.42 1014.36 1013.57 1013.11 1012.96 1013.07 1013.35 1013.68 1013.99 1014.20 1014.30 1014.29 1014.21 1014.11 1014.05 1014.04 1014.12 1014.24 1014.40 1014.54 1014.63 1014.63 1014.54 1014.38 1014.15 1013.89 1013.64 1013.41 1013.20 1013.02 1012.85 1012.66 1012.44 1012.18 1011.88 1011.54 1011.18 1010.83 1010.50
1016.52 1017.56 1018.52 1019.25 1019.65 1019.63 1019.18 1018.36 1017.28 1016.06 1014.88 1013.88 1013.15 1012.73 1012.61 1012.74 1013.03 1013.38 1013.71 1013.95 1014.08 1014.11 1014.06 1013.99 1013.94 1013.93 1013.98 1014.08 1014.19 1014.30 1014.36 1014.36 1014.28 1014.13 1013.94 1013.72 1013.51 1013.31 1013.12 1012.95 1012.78 1012.58 1012.35 1012.08 1011.76 1011.41 1011.04 1010.68 1010.32
1016.51 1017.38 1018.16 1018.72 1018.96 1018.82 1018.31 1017.49 1016.45 1015.33 1014.27 1013.38 1012.74 1012.39 1012.32 1012.47 1012.76 1013.10 1013.41 1013.65 1013.79 1013.84 1013.82 1013.77 1013.74 1013.74 1013.78 1013.86 1013.96 1014.04 1014.09 1014.08 1014.01 1013.90 1013.74 1013.56 1013.38 1013.20 1013.04 1012.87 1012.69 1012.48 1012.24 1011.95 1011.62 1011.27 1010.90 1010.53 1010.17
Thickness
5810 5806 5800 5785 5764 5748 5745 5758 5770 5774 5777 5783 5787 5780 5769 5761 5754 5746 5768 5777 5775 5772 5770 5769 5768 5767 5766 5766 5765 5765 5764 5764 5764 5763 5763 5763 5763 5763 5763 5763 5763 5762 5762 5762 5762 5762 5763 5763 5763
5810 5804 5791 5772 5750 5735 5743 5760 5767 5776 5783 5787 5784 5777 5768 5763 5768 5766 5768 5772 5772 5770 5768 5767 5766 5765 5764 5763 5763 5762 5762 5761 5761 5761 5761 5761 5761 5761 5761 5761 5761 5761 5761 5761 5760 5761 5761 5761 5761
5810 5803 5780 5761 5748 5740 5747 5762 5771 5782 5789 5785 5774 5770 5763 5759 5766 5765 5768 5769 5768 5767 5765 5764 5763 5762 5761 5760 5760 5759 5759 5758 5758 5758 5758 5758 5759 5759 5759 5759 5759 5759 5759 5759 5759 5759 5759 5759 5759
5805 5789 5774 5757 5748 5756 5761 5768 5776 5778 5781 5781 5771 5759 5760 5766 5766 5766 5768 5767 5764 5763 5762 5761 5760 5759 5758 5757 5756 5756 5755 5755 5755 5755 5755 5756 5756 5756 5757 5757 5757 5758 5757 5757 5757 5757 5757 5758 5758
5798 5778 5759 5748 5750 5761 5769 5776 5778 5773 5772 5771 5766 5751 5750 5761 5766 5765 5764 5762 5760 5758 5757 5756 5756 5755 5754 5753 5752 5752 5752 5752 5751 5752 5752 5753 5753 5754 5754 5755 5755 5756 5756 5756 5756 5756 5756 5756 5757
5781 5769 5748 5740 5748 5760 5768 5775 5774 5769 5766 5766 5760 5747 5745 5757 5759 5759 5759 5757 5756 5754 5752 5751 5750 5749 5749 5748 5748 5748 5748 5748 5748 5748 5748 5749 5750 5751 5752 5752 5753 5754 5754 5754 5754 5754 5754 5755 5755
5774 5761 5749 5747 5746 5752 5765 5774 5768 5763 5761 5762 5761 5743 5742 5749 5753 5754 5753 5751 5750 5748 5746 5744 5744 5743 5743 5742 5742 5742 5742 5743 5743 5744 5745 5745 5746 5747 5748 5749 5751 5752 5753 5753 5753 5753 5753 5754 5754
5780 5760 5749 5746 5745 5750 5768 5773 5771 5765 5759 5767 5762 5741 5736 5745 5750 5748 5745 5743 5741 5740 5738 5737 5736 5735 5735 5735 5735 5736 5736 5736 5737 5739 5740 5741 5742 5743 5745 5746 5748 5749 5750 5751 5751 5751 5752 5752 5753
5780 5751 5740 5745 5747 5754 5768 5766 5768 5769 5760 5757 5756 5750 5748 5749 5746 5740 5735 5732 5731 5731 5730 5729 5728 5728 5727 5727 5728 5728 5729 5730 5731 5733 5734 5735 5737 5739 5740 5742 5744 5745 5747 5748 5749 5749 5750 5751 5751
5767 5742 5747 5759 5761 5760 5766 5764 5761 5754 5746 5743 5744 5747 5748 5743 5737 5730 5725 5722 5721 5721 5721 5721 5721 5720 5719 5719 5719 5720 5721 5722 5724 5726 5727 5729 5731 5733 5736 5737 5740 5741 5743 5744 5746 5747 5748 5748 5749
5763 5751 5757 5763 5768 5767 5763 5760 5762 5746 5735 5738 5737 5738 5738 5734 5729 5724 5721 5718 5717 5716 5715 5715 5714 5712 5712 5711 5711 5712 5713 5715 5716 5718 5721 5723 5725 5727 5729 5732 5734 5736 5738 5740 5742 5743 5745 5746 5747
5758 5758 5760 5762 5768 5765 5760 5757 5751 5746 5742 5747 5744 5740 5734 5728 5723 5720 5716 5714 5713 5711 5710 5710 5708 5706 5705 5704 5704 5705 5705 5707 5709 5712 5714 5716 5718 5721 5724 5726 5728 5730 5733 5735 5737 5739 5741 5742 5744
5755 5754 5760 5763 5764 5763 5760 5753 5746 5743 5747 5747 5743 5736 5729 5725 5721 5718 5716 5712 5709 5707 5705 5705 5704 5701 5700 5698 5698 5698 5699 5700 5702 5705 5707 5709 5711 5714 5717 5719 5722 5725 5727 5729 5732 5734 5736 5738 5741
5758 5756 5756 5758 5759 5759 5750 5745 5742 5739 5746 5743 5737 5731 5728 5724 5719 5715 5711 5708 5706 5704 5702 5701 5699 5697 5695 5693 5692 5692 5692 5694 5696 5698 5700 5703 5705 5708 5710 5713 5716 5720 5722 5724 5727 5729 5731 5734 5737
5761 5748 5746 5748 5752 5752 5748 5735 5738 5743 5743 5737 5732 5729 5726 5723 5719 5713 5710 5707 5705 5702 5700 5697 5696 5693 5690 5688 5687 5686 5687 5688 5690 5691 5693 5696 5699 5702 5705 5707 5710 5714 5717 5719 5721 5724 5727 5730 5732
5748 5735 5726 5740 5745 5747 5736 5721 5738 5743 5738 5730 5728 5726 5722 5720 5717 5714 5711 5707 5704 5700 5697 5694 5693 5689 5686 5684 5682 5682 5682 5683 5684 5686 5688 5690 5693 5696 5699 5701 5704 5708 5711 5714 5715 5718 5720 5723 5726
5730 5720 5722 5732 5743 5741 5731 5723 5736 5739 5735 5727 5725 5722 5719 5715 5713 5712 5710 5706 5702 5699 5695 5691 5688 5685 5682 5680 5679 5678 5678 5679 5680 5681 5683 5685 5688 5690 5693 5695 5699 5703 5705 5708 5710 5712 5714 5716 5720
5720 5720 5722 5726 5739 5736 5727 5726 5732 5735 5732 5725 5722 5719 5716 5712 5710 5711 5708 5705 5702 5698 5694 5690 5686 5682 5679 5677 5676 5675 5675 5675 5676 5677 5679 5681 5683 5685 5688 5690 5693 5696 5699 5701 5704 5706 5709 5711 5714
5734 5726 5723 5732 5746 5736 5727 5726 5728 5730 5727 5722 5719 5716 5713 5711 5711 5710 5707 5704 5700 5696 5692 5688 5684 5680 5677 5674 5671 5670 5669 5671 5672 5674 5676 5678 5679 5681 5683 5685 5687 5690 5692 5694 5697 5700 5702 5705 5708
5735 5726 5724 5734 5745 5735 5726 5726 5731 5730 5727 5725 5720 5716 5713 5710 5708 5706 5704 5702 5698 5694 5691 5687 5683 5680 5677 5673 5671 5669 5668 5668 5669 5671 5673 5674 5675 5677 5679 5679 5681 5683 5685 5688 5691 5693 5695 5698 5702
5730 5725 5726 5728 5735 5735 5725 5714 5721 5728 5729 5726 5724 5720 5716 5712 5707 5705 5703 5700 5698 5694 5691 5688 5684 5681 5677 5675 5672 5669 5667 5666 5666 5667 5668 5670 5671 5672 5674 5675 5676 5678 5679 5681 5684 5687 5689 5690 5694
5723 5739 5738 5733 5718 5707 5717 5693 5710 5719 5720 5721 5720 5718 5716 5714 5711 5707 5705 5701 5698 5696 5693 5689 5685 5681 5679 5675 5671 5667 5664 5662 5662 5663 5664 5666 5668 5668 5669 5671 5671 5672 5674 5675 5678 5682 5684 5685 5686
5734 5746 5740 5733 5720 5707 5708 5693 5699 5715 5712 5716 5718 5719 5717 5716 5713 5710 5707 5704 5702 5699 5694 5690 5686 5682 5679 5676 5672 5668 5664 5663 5662 5662 5662 5663 5664 5665 5665 5666 5667 5668 5669 5671 5673 5675 5678 5680 5681
5746 5736 5724 5710 5701 5691 5706 5694 5696 5704 5714 5719 5720 5720 5719 5717 5715 5712 5710 5706 5703 5700 5696 5691 5686 5683 5679 5676 5672 5668 5665 5663 5661 5660 5659 5658 5659 5660 5661 5662 5663 5664 5665 5666 5668 5671 5673 5675 5677
5733 5708 5687 5687 5676 5684 5707 5699 5700 5720 5727 5726 5722 5720 5719 5718 5714 5711 5708 5705 5703 5700 5696 5692 5687 5683 5679 5676 5673 5669 5666 5663 5660 5658 5656 5655 5655 5655 5657 5658 5659 5660 5662 5663 5664 5666 5668 5671 5672
5726 5709 5685 5677 5676 5684 5704 5698 5708 5729 5732 5731 5728 5724 5721 5718 5716 5714 5711 5708 5704 5702 5698 5693 5688 5684 5680 5677 5673 5670 5667 5664 5661 5658 5656 5654 5653 5653 5655 5656 5657 5658 5659 5660 5661 5661 5663 5665 5667
5725 5711 5709 5690 5690 5682 5689 5702 5716 5727 5726 5725 5724 5722 5720 5719 5718 5716 5713 5710 5707 5703 5699 5695 5690 5685 5682 5678 5675 5671 5668 5665 5662 5659 5656 5654 5653 5654 5654 5654 5655 5655 5656 5656 5657 5657 5658 5660 5662
5734 5719 5698 5691 5679 5674 5689 5695 5695 5713 5717 5722 5722 5722 5722 5722 5720 5718 5715 5712 5709 5706 5702 5697 5692 5687 5683 5680 5676 5673 5669 5666 5663 5660 5657 5655 5654 5653 5653 5652 5653 5653 5653 5653 5653 5654 5655 5655 5657
5726 5722 5701 5684 5682 5673 5677 5690 5720 5722 5726 5726 5726 5727 5726 5724 5722 5719 5716 5714 5711 5707 5703 5698 5693 5689 5685 5681 5678 5674 5670 5667 5664 5661 5658 5656 5654 5653 5652 5651 5651 5650 5650 5650 5650 5650 5651 5651 5652
5730 5722 5704 5689 5688 5681 5674 5692 5735 5734 5735 5733 5731 5731 5730 5728 5725 5722 5719 5715 5711 5708 5704 5699 5695 5691 5687 5683 5679 5675 5672 5668 5665 5662 5659 5657 5655 5653 5651 5650 5649 5648 5648 5648 5648 5647 5647 5647 5647